Probability
3 3 4 5 6 6 5 4 2 1 0 0 0 0 0 0 0 0 0 1 2 2 2 2 1 1 0 0 0 0 0 0 0 0 0 0 0 0 0 0 0 0 0
3 3 4 5 6 6 5 3 2 1 0 0 0 0 0 0 0 0 0 0 1 1 2 2 2 1 0 0 0 0 0 0 0 0 0 0 0 0 0 0 0 0 0
3 3 4 4 4 4 3 2 1 1 0 0 0 0 0 0 0 0 0 0 0 0 1 2 1 1 0 0 0 0 0 0 0 0 0 0 0 0 0 0 0 0 0
1 2 3 3 1 1 1 1 1 1 0 0 0 0 0 0 0 0 0 0 0 0 0 0 0 0 0 0 0 0 0 0 0 0 0 0 0 0 0 0 0 0 0
0 1 2 1 0 0 0 0 1 1 0 0 0 0 0 0 0 0 0 0 0 0 0 0 0 0 0 0 0 0 0 0 0 0 0 0 0 0 0 0 0 0 0
0 0 0 0 0 0 0 0 0 0 0 0 0 0 1 1 1 0 0 0 0 0 0 0 0 0 0 0 0 0 0 0 0 0 0 0 0 0 0 0 0 0 0
0 0 0 0 0 0 0 0 0 0 0 0 0 0 1 2 1 0 0 0 0 0 0 0 0 0 0 0 0 0 0 0 0 0 0 0 0 0 0 0 0 0 0
0 0 0 0 0 0 0 0 0 0 0 0 0 0 2 2 1 0 0 0 0 0 0 0 0 0 0 0 0 0 0 0 0 0 0 0 0 0 0 0 0 0 0
0 0 0 0 0 0 0 0 0 0 0 0 0 0 1 1 1 0 0 0 0 0 0 0 0 0 0 0 0 0 0 0 0 0 0 0 0 0 0 0 0 0 0
1 1 1 0 0 0 0 0 0 0 0 0 0 0 0 0 0 0 0 0 0 0 0 0 0 0 0 0 0 0 0 0 0 0 0 0 0 0 0 0 0 0 0
2 2 2 1 0 0 0 0 0 0 0 0 0 0 0 0 0 0 0 0 0 0 0 0 0 0 0 0 0 0 0 0 0 0 0 0 0 0 0 0 0 0 0
1 2 2 1 0 0 0 0 0 0 0 0 0 0 0 0 1 0 0 0 0 0 0 0 0 0 0 0 0 0 0 0 0 0 0 0 0 0 0 0 0 0 0
0 1 1 0 0 0 0 0 0 0 0 0 0 0 0 0 0 0 0 0 0 0 0 0 0 0 0 0 0 0 0 0 0 0 0 0 0 0 0 0 0 0 0
0 0 0 0 0 0 0 0 0 0 0 0 0 0 0 0 0 0 0 0 0 0 0 0 0 0 0 0 0 0 0 0 0 0 0 0 0 0 0 0 0 0 0
0 0 0 0 0 1 0 0 0 0 0 0 0 0 0 0 0 0 0 0 0 0 0 0 0 0 0 0 0 0 0 0 0 0 0 0 0 0 0 0 0 0 0
0 0 0 0 0 0 0 0 0 0 0 0 0 0 0 0 0 0 0 0 0 0 0 0 0 0 0 0 0 0 0 0 0 0 0 0 0 0 0 0 0 0 0
0 0 0 0 0 0 0 0 0 0 0 0 0 0 0 0 0 0 0 0 0 0 0 0 0 0 0 0 0 0 0 0 0 0 0 0 0 0 0 0 0 0 0
0 0 0 0 0 0 0 0 0 0 0 0 0 0 0 0 0 0 0 0 0 0 0 0 0 0 0 0 0 0 0 0 0 0 0 0 0 0 0 0 0 0 0
0 0 0 0 0 0 0 0 0 0 0 0 0 0 0 0 0 0 0 0 0 0 0 0 0 0 0 0 0 0 0 0 0 0 0 0 0 0 0 0 0 0 0
0 0 0 0 0 0 0 0 0 0 0 0 0 0 0 0 0 0 0 0 0 0 0 0 0 0 0 0 0 0 0 0 0 0 0 0 0 0 0 0 0 0 0
0 0 0 0 0 0 0 0 0 0 0 0 0 0 0 0 0 0 0 0 0 0 0 0 0 0 0 0 0 0 0 0 0 0 0 0 0 0 0 0 0 0 0
0 0 0 0 0 0 0 0 0 0 0 0 0 0 0 0 0 0 0 0 0 0 0 0 0 0 0 0 0 0 0 0 0 0 0 0 0 0 0 0 0 0 0
0 0 0 0 0 0 0 0 0 0 0 0 0 0 0 0 0 0 0 0 0 0 0 0 0 0 0 0 0 0 0 0 0 0 0 0 0 0 0 0 0 0 0
0 0 0 0 0 0 0 0 0 0 0 0 0 0 0 0 0 0 0 0 0 0 0 0 0 0 0 0 0 0 0 0 0 0 0 0 0 0 0 0 0 0 0
0 0 0 0 0 0 0 0 0 0 0 0 0 0 0 0 0 0 0 0 0 0 0 0 0 0 0 0 0 0 0 0 0 0 0 0 0 0 0 0 0 0 0
0 0 0 0 0 0 0 0 0 0 0 0 0 0 0 0 0 0 0 0 0 0 0 0 0 0 0 0 0 0 0 0 0 0 0 0 0 0 0 0 0 0 0
Wind_Speed
3 2 2 2 3 2 3 3 3 4 4 4 4 5 5 5 5 4 3 8 9 9 9 10 9 9 10 11 11 11 10 10 10 10 10 10 10 10 9 9 9 10 10
3 3 2 2 2 2 2 2 3 3 3 3 5 5 5 4 5 5 4 5 9 9 9 10 10 10 10 10 11 11 10 10 10 10 9 9 9 9 9 9 9 9 9
3 3 3 2 2 2 3 3 3 3 3 4 4 4 4 5 5 5 5 4 4 8 9 9 10 10 10 10 10 10 10 10 9 9 9 8 8 8 8 8 8 8 8
3 3 3 2 2 2 3 3 3 3 3 3 3 3 3 4 5 5 4 4 4 4 6 9 9 9 9 9 10 9 9 9 9 8 8 8 8 8 8 8 8 7 7
3 3 3 3 3 3 3 3 3 3 3 3 3 3 3 3 3 4 4 5 4 4 4 6 9 9 9 9 9 8 8 8 7 7 7 7 8 7 7 7 6 6 6
2 3 3 3 3 3 2 3 4 3 3 4 4 4 3 3 3 3 3 3 4 5 4 4 4 5 8 8 8 8 7 7 7 6 6 7 7 6 6 6 6 5 5
2 2 3 4 3 3 3 4 3 4 3 3 3 3 2 3 3 3 2 3 4 4 4 4 3 3 3 7 8 7 7 7 6 6 5 5 5 5 5 5 5 5 5
2 2 3 3 3 3 4 4 4 3 2 2 3 3 2 1 2 2 2 2 3 3 4 4 4 3 3 2 5 7 7 6 5 5 4 4 4 4 3 4 4 4 5
1 1 3 3 3 4 4 4 5 5 4 1 1 3 4 3 1 1 1 2 2 2 2 2 3 3 3 3 2 5 6 5 4 4 4 3 3 3 3 3 3 3 4
1 1 2 3 3 3 4 4 4 3 5 4 1 0 1 4 4 2 0 0 1 1 1 2 2 2 3 2 3 5 5 5 4 3 2 2 3 2 2 3 3 3 3
1 2 2 2 2 2 3 4 4 4 4 4 3 2 1 1 2 4 3 2 0 0 0 1 1 1 2 2 2 3 4 4 4 3 2 2 2 3 2 2 3 4 4
1 1 2 2 2 2 3 4 4 5 4 4 3 3 3 3 3 3 3 3 2 1 0 1 1 1 1 1 2 3 3 4 3 3 3 3 3 3 4 3 3 4 4
1 2 2 2 2 3 3 3 4 4 4 4 4 3 2 2 2 3 4 3 1 0 0 0 1 1 1 1 0 2 2 3 3 4 3 3 4 4 4 5 5 5 5
2 2 3 3 3 3 3 3 3 4 4 4 4 4 3 2 2 3 4 4 3 1 1 2 1 1 1 1 0 1 1 2 2 3 3 3 4 5 5 5 6 6 6
2 2 2 2 3 3 4 4 3 4 4 4 4 4 3 2 2 2 3 4 5 4 3 3 2 1 1 1 1 1 0 1 2 2 2 3 3 4 4 4 5 6 6
2 2 3 3 3 3 3 4 3 3 4 3 3 3 3 2 2 2 3 2 2 4 3 2 2 1 1 1 1 1 1 1 2 2 2 2 3 3 3 4 5 5 6
3 3 3 4 3 4 4 4 4 4 4 4 3 4 4 3 2 3 3 2 2 3 3 2 1 1 2 2 1 1 1 1 1 2 2 2 3 3 3 4 5 5 6
2 3 3 4 4 4 4 5 5 5 5 5 5 4 4 3 3 3 3 3 2 3 3 3 1 1 2 2 2 1 0 0 1 2 2 2 2 3 3 4 5 5 5
2 2 3 4 4 4 4 5 5 5 5 6 6 6 5 5 4 3 4 3 3 2 2 3 2 1 1 1 1 1 1 1 1 2 2 2 3 3 4 5 5 5 5
2 2 3 3 3 3 4 4 5 5 5 5 5 5 5 6 6 5 4 4 3 3 3 3 2 2 1 1 2 1 1 1 1 1 2 2 3 3 4 5 5 5 5
2 2 2 2 3 3 3 4 4 5 5 4 4 4 5 6 7 6 5 5 5 4 3 3 3 2 2 2 3 2 2 1 1 1 1 1 2 2 2 4 4 5 5
2 2 2 2 3 3 4 5 4 4 4 5 4 4 4 6 7 8 8 7 7 6 5 4 3 4 4 3 3 3 2 2 2 2 1 2 1 2 2 2 4 5 5
1 2 2 2 3 3 5 6 5 4 4 4 5 4 4 4 6 5 6 7 7 7 8 6 5 5 5 5 5 4 4 3 3 2 2 2 1 2 2 3 5 5 4
2 2 2 3 3 4 5 6 6 4 3 4 4 5 5 5 5 5 5 4 4 4 5 5 5 5 4 4 5 5 4 2 0 1 2 2 2 2 3 2 4 4 4
2 2 2 3 3 4 5 5 5 3 3 4 4 4 5 5 7 8 6 5 5 4 4 5 5 5 6 6 4 3 3 2 1 2 2 2 1 1 2 2 2 4 4
2 2 3 3 3 3 5 5 5 3 3 3 3 4 6 6 8 8 6 6 6 5 4 3 2 3 3 4 6 4 4 3 2 2 2 2 1 0 2 2 1 2 2
Wind_Direction
119 108 112 102 98 99 99 97 96 95 91 86 86 93 87 76 65 58 50 61 76 84 90 97 101 105 106 107 107 104 102 99 96 93 88 85 84 81 81 79 78 74 71
126 126 119 110 109 113 110 108 105 106 96 93 84 86 87 80 70 65 57 51 56 70 83 91 98 103 105 107 106 103 101 100 96 93 90 87 85 83 81 81 79 75 70
126 127 130 122 116 119 112 103 96 97 96 90 82 81 84 78 78 71 63 54 48 53 68 81 89 98 101 102 103 102 99 95 94 91 89 87 85 84 82 79 76 72 67
130 134 136 132 125 120 120 119 113 107 102 98 90 77 79 77 73 71 67 61 55 50 54 64 72 81 90 95 97 98 98 95 91 89 88 86 85 82 79 76 71 67 64
134 146 144 137 133 125 119 129 115 123 120 105 94 77 77 78 76 74 69 64 62 59 54 57 59 61 72 83 89 94 95 97 95 89 85 85 83 78 76 74 70 65 62
131 140 139 135 140 134 126 130 132 117 121 117 99 75 69 71 71 74 75 67 63 63 61 58 55 52 58 68 76 81 88 93 92 89 86 85 81 76 71 67 61 60 55
126 134 141 140 145 146 144 135 132 128 115 122 106 89 59 65 70 62 64 74 67 63 66 64 60 55 47 53 59 69 75 83 84 84 82 85 82 73 67 59 54 51 45
133 143 140 155 154 148 142 139 135 138 130 141 132 128 119 55 38 48 56 75 72 65 66 63 63 61 56 51 48 56 59 68 79 77 75 75 69 66 59 50 47 42 34
124 139 153 161 158 155 160 160 159 153 157 172 138 144 153 175 157 19 48 68 67 63 64 67 65 56 55 54 42 43 45 47 60 62 63 65 60 47 38 34 28 27 22
126 132 155 155 161 160 163 171 167 164 161 168 189 357 123 141 150 158 247 62 67 65 57 65 68 62 57 54 42 43 41 37 42 37 38 48 40 26 28 24 5 359 358
145 145 150 153 165 166 168 175 168 168 171 169 167 155 108 95 128 148 173 189 195 242 260 106 105 89 67 55 36 38 37 29 24 14 3 9 9 11 1 351 352 354 351
173 153 160 161 174 176 177 183 179 179 181 171 165 159 157 161 164 151 162 175 189 222 233 127 128 119 94 63 37 40 25 14 2 355 354 358 359 349 346 338 332 336 336
220 200 180 188 192 187 184 180 181 188 184 180 180 179 172 180 158 151 143 152 160 224 195 200 198 167 126 101 4 28 14 4 357 352 347 1 8 5 359 353 343 333 334
212 210 192 194 197 186 185 178 186 196 189 189 190 185 181 183 165 156 154 151 147 201 224 231 236 205 182 170 213 49 338 349 350 349 355 10 17 14 8 6 4 359 351
208 196 201 197 194 186 188 179 182 194 186 191 196 193 188 189 183 166 157 162 161 179 218 213 213 233 215 187 195 166 251 340 345 343 357 12 11 7 6 6 2 359 354
201 193 201 202 199 191 191 184 183 190 181 189 192 192 196 188 184 168 166 167 171 175 197 210 213 222 213 204 206 174 190 26 346 335 345 357 355 354 352 353 354 351 348
209 202 205 204 203 199 195 191 190 188 187 189 195 198 204 191 192 181 169 166 171 165 190 230 232 214 195 197 219 188 167 170 284 312 323 343 356 349 345 344 343 340 339
220 215 204 201 203 201 198 195 199 197 194 195 199 197 208 196 203 189 177 180 184 177 174 204 218 209 212 208 188 191 226 308 263 294 299 327 340 337 334 337 334 338 341
230 227 201 202 203 201 199 200 201 202 201 203 200 198 204 194 206 194 185 188 186 178 168 178 203 204 206 195 172 191 215 265 292 292 289 307 318 320 319 321 328 339 342
230 230 217 212 209 205 204 204 200 200 205 208 206 201 202 200 207 197 193 188 177 169 163 168 186 192 191 180 167 186 235 237 272 298 275 294 308 315 316 319 327 329 327
235 229 226 223 216 209 209 204 200 198 201 204 205 206 207 210 210 203 198 187 179 181 178 181 192 191 193 186 200 192 219 229 255 231 229 278 297 294 300 307 313 314 315
261 226 220 220 218 225 221 213 205 196 200 206 210 215 217 216 209 210 211 204 195 190 191 194 207 206 206 202 194 198 199 205 238 203 208 262 257 266 276 272 296 308 312
274 251 234 220 226 236 228 222 217 206 203 208 209 209 218 222 208 201 209 212 212 212 205 200 204 212 206 200 191 204 210 214 229 200 193 241 232 258 278 288 294 302 316
258 252 245 229 232 241 229 223 217 215 210 211 213 211 210 206 206 198 194 197 206 214 214 208 206 209 210 198 196 203 207 202 212 220 194 224 229 257 284 279 285 296 319
271 260 250 235 233 246 237 222 213 210 217 221 222 214 206 204 212 208 196 195 207 223 234 220 217 213 208 204 191 165 172 186 235 236 199 200 226 276 273 265 282 303 315
270 272 265 254 239 240 239 230 219 215 223 227 225 222 222 217 216 212 199 192 203 210 191 181 192 203 198 196 201 197 188 197 210 227 196 185 207 262 276 257 264 287 300